Location: Ladrillo (historical)
(32.8195°N, 117.2231°W)
Time: 23:54:10
(UTC+00:00)

Altair - Pass Details

Date: 06 March 2021
Orbit: 1501 x 1683 km, 47.2° (Epoch: 16 April)

Event Time Altitude Azimuth Distance (km) Brightness Sun altitude
Rises 06:03:11 0° 302° (WNW) 4,681 10.7 -51.5°
Reaches altitude 10° 06:06:30 10° 310° (NW) 3,718 10.0 -52.0°
Enters shadow 06:10:55 28° 330° (NNW) 2,624 8.9 -52.7°
